Location: Balsareny
(41.8670°N, 1.8830°E)
Time: 04:55:01
(UTC+02:00)

Tiangong - Pass Details

Date: 01 July 2021
Orbit: 373 x 386 km, 41.5° (Epoch: 28 July)

Event Time Altitude Azimuth Distance (km) Brightness Sun altitude
Exits shadow 04:54:05 26° 212° (SSW) 775 2.0 -13.1°
Maximum altitude 04:54:17 27° 205° (SSW) 770 2.0 -13.1°
Drops below altitude 10° 04:56:58 10° 145° (SE) 1,381 3.7 -12.8°
Sets 04:59:12 0° 132° (SE) 2,233 4.9 -12.5°
